DELTA 1 R/B, 3036

Orbit data source: Space-Track

DELTA 1 R/B, 3036 is space debris in SSO originally from a launch on Fri, 10 Nov 1967 UTC launched from the Air Force Western Test Range (AFWTR). Debris objects in space refer to the collection of defunct objects orbiting the Earth. Examples of debris include non-operational satellites, rocket bodies, and fragments generated from explosions, collisions, or faulty payload assembly.

Loading next visibility...
Identifier
3036, 1967-114B
Orbit
SSO
Last TLE update
14 hours ago
Origin
Manufacturer
UTC
Mission
Spacecraft
Bus & Motor
FW4, Unknown motor
Mass
~40 kg wet, ~40 kg dry
Launch date (UTC)
1967-11-10 (57 years ago)
Launch vehicle
Unknown
Launch site
Air Force Western Test Range (AFWTR)
Object type
Payload
Rocket body
Debris
Shape & HBR
Cyl, 1.5 m
Radar Cross Section
0.687 m², Medium (>0.1 m² and < 1m²)

Expand to show TLE details & history

TLE from 14 hours ago
0 DELTA 1 R/B
1 03036U 67114B   25129.17897411 -.00000046  00000-0  38873-5 0  9993
2 03036 102.0116 220.1214 0048175 189.3359 200.4698 12.54131369631701
Epoch: 2025-05-09T04:17Z
Definitive object data (Epoch: 2025-05-09T04:17:43.363Z)
Latitude
28.94822°
Longitude
-78.27358°
Altitude
1,485.9 km
Speed
7.107 km/s
True Right ascension
14h 13m 35s
True Declination
28° 48' 59"
Sunlit
Object was in full shadow at TLE epoch
Visualization TLE readout
Latitude
20.23851°
Longitude
113.5233°
Altitude
1,416.42 km
Speed
7.169 km/s
Apparent Right ascension
03h 53m 13s
Apparent Declination
-28° 53' 26"
Sunlit
Object is in daylight
Visualization observer readout
Local Sidereal Time
02:34:00
Azimuth
161.742° S
Elevation
18.772°
Doppler factor
1
Orbital elements
Apogee altitude
1,482.506 km
Perigee altitude
1,407.132 km
Semi-major axis
7,822.956 km
Eccentricity
0.0048175
Inclination
102.0116°
RAAN
220.1214°
Arg. of periapsis
189.3359°
True anomaly
200.27783°
Mean anomaly
200.4698°
Eccentric anomaly
200.37371°
Mean motion
3.1368 °/min
BSTAR
0.0000038873
Orbital period
114.77 mins
Loading maneuver chart data...
Loading SW <> Apogee altitude chart data...
Loading historical data...
Loading historical data...
Loading historical data...
Loading historical data...
Loading historical data...
Loading historical data...
Loading historical data...
Other satellites on launch #114 in the year 1967 (1967-11-10 UTC)

DELTA 1 R/B Visibility forecast

Observer location: undefined°, undefined°

Span
Click to sort rows by Start time (UTC) header in descending order
Start Az.
Max El. time (UTC)
Max El. Az.
Max El.
End time (UTC)
End Az.
13 mins2025-05-09 20:04:12.509Z0.558° NNE2025-05-09 20:10:12.509Z299.209° NW34.288°2025-05-09 20:17:12.509Z232.746° WSW
5 mins2025-05-10 03:22:12.509Z62.495° ENE2025-05-10 03:24:12.509Z47.753° ENE12.864°2025-05-10 03:27:12.509Z25.479° NE
14 mins2025-05-10 05:09:12.509Z137.048° SSE2025-05-10 05:15:12.509Z73.579° E40.244°2025-05-10 05:23:12.509Z350.564° N
13 mins2025-05-10 07:02:12.509Z207.283° SW2025-05-10 07:08:12.509Z259.609° W27.715°2025-05-10 07:15:12.509Z320.784° NNW
7 mins2025-05-10 17:13:12.509Z64.871° ENE2025-05-10 17:16:12.509Z88.846° E15.393°2025-05-10 17:20:12.509Z120.634° SE
|